This is the latest recevied weather packets stored in our database for station/object EA2DXT-10. If no packets are shown the sender has not sent any weather packets the latest 10 day(s).
| Time | Temp. | Humidity | Pressure | Rain* | Wind** | Luminosity | Snow |
|---|---|---|---|---|---|---|---|
| 1777457678 | 12.22° C | 84% | 933.1 hPa | - | - | - | - |
| 1777442989 | 12.78° C | 83% | 944.2 hPa | - | - | - | - |
| 1777442962 | 7.22° C | 82% | 932.3 hPa | - | - | - | - |
| 1777442061 | 11.11° C | 83% | 938.4 hPa | - | - | - | - |
| 1777442034 | 12.78° C | 83% | 940.8 hPa | - | - | - | - |
| 1777441115 | 12.78° C | 84% | 940.8 hPa | - | - | - | - |
| 1777441062 | 12.78° C | 83% | 944.9 hPa | - | - | - | - |
| 1777441044 | 12.78° C | 84% | 940.8 hPa | - | - | - | - |
| 1777440980 | 12.78° C | 83% | 940.8 hPa | - | - | - | - |
| 1777440931 | 12.22° C | 83% | 940.7 hPa | - | - | - | - |
| 1777440908 | 12.22° C | 83% | 940.7 hPa | - | - | - | - |
| 1777440877 | 12.22° C | 83% | 940.7 hPa | - | - | - | - |
| 1777440002 | 11.11° C | 82% | 938.5 hPa | - | - | - | - |
| 1777439976 | 12.78° C | 82% | 940.8 hPa | - | - | - | - |
| 1777439963 | 11.11° C | 82% | 938.5 hPa | - | - | - | - |
| 1777439062 | 12.78° C | 82% | 943.1 hPa | - | - | - | - |
| 1777439045 | 12.78° C | 82% | 940.6 hPa | - | - | - | - |
| 1777439032 | 12.78° C | 82% | 940.6 hPa | - | - | - | - |
| 1777438132 | 12.78° C | 82% | 940.7 hPa | - | - | - | - |
| 1777438103 | 7.22° C | 81% | 931.9 hPa | - | - | - | - |
| 1777437227 | 12.78° C | 82% | 940.7 hPa | - | - | - | - |
| 1777437202 | 11.67° C | 82% | 938.7 hPa | - | - | - | - |
| 1777437190 | 12.78° C | 82% | 940.7 hPa | - | - | - | - |
| 1777436288 | 12.78° C | 82% | 940.8 hPa | - | - | - | - |
| 1777436270 | 12.78° C | 82% | 940.7 hPa | - | - | - | - |
* Rain since midnight (hover to see other rain measurements)
** Current wind speed in m/s (hover to see current wind gust speed)